Погода в Спитаке

Армения     40°49′50″N   44°16′14″E
темп.,
°C
ветер,
м/с
пор.,
м/с
влажн.,
%
обл.,
%
осадки,
мм/ч
давл.,
гПа
погр.,
м
1 декабря, ср
ср101:00+7юз920520 0.0 1006862
04:00+6юз1021550 0.0 10041000
07:00+5юз1022632 0.0 10021230
10:00+5юз11225921 0.0 10011769
13:00+6ююз1122569 0.1 10002064
16:00+2з4778100 0.4 1003775
19:00−3з129698 7.6 1010170
22:00−6юз229397 7.6 101427
2 декабря, чт
чт201:00−6юз229287 0.1 101529
04:00−9ююз22915 0.1 101816
07:00−10ююз22895 0.0 102114
10:00−7зюз22805 0.0 102161
13:00−4зюз23702 0.0 1019298
16:00−5зюз22792 0.0 1022122
19:00−10ююз32771 0.0 102815
22:00−10ю22751 0.0 103013
3 декабря, пт
пт301:00−11ю22731 0.0 103113
04:00−10ю22720 0.0 103113
07:00−10ю22740 0.0 103213
10:00−7ю227365 0.0 103049
13:00−3зюз226749 0.0 1026194
16:00−4юз23805 0.0 102768
19:00−9ююз33792 0.0 103123
22:00−9ююз32721 0.0 103220
4 декабря, сб
сб401:00−9ююз33711 0.0 103219
04:00−9ююз33703 0.0 103120
07:00−9ююз336861 0.0 103119
10:00−6ююз33685 0.0 102843
13:00−2зюз23662 0.0 1024125
16:00−3юз3374100 0.0 102454
19:00−7ююз3371100 0.0 102724
22:00−7ююз3365100 0.0 102723
5 декабря, вс
вс501:00−7ююз3365100 0.0 102723
04:00−8ююз336435 0.0 102627
07:00−8ююз3364100 0.0 102625
10:00−5ююз336798 0.0 102355
13:00−1юз236652 0.0 1020171
16:00−3зюз237879 0.0 102073
19:00−5ююз228237 0.0 102321
22:00−6ююз227784 0.0 102322